Regional Weather Roundup
Issued by NWS

Home | Current Version | Previous Version | Graphics & Text | Print | Product List | Glossary On
Versions: 1 2 3 4 5 6 7 8 9 10 11 12 13 14 15 16 17 18 19 20 21 22 23 24 25 26 27 28
000
ASUS45 KSLC 221410
RWRUT

UTAH REGIONAL WEATHER ROUNDUP
NATIONAL WEATHER SERVICE SALT LAKE CITY UT
800 AM MDT WED MAR 22 2017

UTZ001>011-023>025-221500-

NORTHERN UTAH

CITY           SKY/WX    TMP DP  RH WIND       PRES   REMARKS
BRIGHAM CITY     N/A     49  44  83 W13G25    29.95R
DUGWAY         MOCLDY    49  38  67 NE2       29.87
HILL AFB       CLOUDY    50  43  77 S5        29.90S
LOGAN          LGT RAIN  48  45  89 W12       29.92R
OGDEN          CLOUDY    50  45  83 SW9       29.89S
SALT LAKE CITY MOCLDY    53  46  77 VRB5      29.87S
WENDOVER         N/A     45  34  65 W3        29.89S
HEBER CITY     DRIZZLE   46  39  76 SE7       29.95R

$$

UTZ011>015-024>027-221500-

CENTRAL/NORTHEAST UTAH

CITY           SKY/WX    TMP DP  RH WIND       PRES   REMARKS
PROVO AIRPORT  CLOUDY    53  43  68 SE5       29.91R
MOAB/CANYONLAN   N/A     58  26  29 SE3       29.93R
DELTA          CLOUDY    54  32  43 S10       29.91S
PRICE          MOCLDY    49  32  52 CALM      29.96R
ROOSEVELT      CLOUDY    54  34  47 SW5       29.95S
VERNAL         CLOUDY    50  33  52 N6        29.94S

$$

UTZ013>016-019>022-027-221500-

SOUTHERN UTAH

CITY           SKY/WX    TMP DP  RH WIND       PRES   REMARKS
BRYCE CANYON     N/A     28  24  85 SW7       30.07F WCI  21
CEDAR CITY       N/A     50  29  44 S10       29.96R
MILFORD        MOCLDY    48  36  63 SW10      29.93S
ST GEORGE        N/A     58  35  42 SE6       29.91S
HANKSVILLE       N/A     63  28  27 S12G18    29.95R
BLANDING         N/A     49  26  40 NE5       30.13R

$$

REGIONAL REPORTS     COLORADO/ARIZONA

CITY           SKY/WX    TMP DP  RH WIND       PRES   REMARKS
CRAIG, CO      CLOUDY    41  33  73 CALM      29.99F
GRAND JUNCTION PTCLDY    58  30  34 CALM      29.95S
RIFLE, CO      CLOUDY    46  33  60 CALM      30.00S
MONTROSE, CO   PTCLDY    61  19  19 VRB3      30.04R
CORTEZ, CO     CLOUDY    38  31  76 VRB3      30.08S
COLORADO CITY    N/A     52  34  50 SE5       30.01S
PAGE, AZ         N/A     61  26  26 VRB5      29.96S
GRAND CANYON     N/A     38  31  76 CALM      30.09R
KINGMAN, AZ      N/A     57  32  38 SW5       29.97R
FLAGSTAFF, AZ    N/A     45  31  58 SW8       30.10F

$$

REGIONAL REPORTS    NEVADA/IDAHO/WYOMING

CITY           SKY/WX    TMP DP  RH WIND       PRES   REMARKS
LAS VEGAS, NV  MOCLDY    63  43  48 SW13      29.87S
ELY, NY          N/A     41  34  76 S14       29.93S
ELKO, NV       CLOUDY    41  36  82 E3        29.94
POCATELLO, ID  MOCLDY    39  39 100 CALM      29.95R
BURLEY, ID     CLOUDY    44  41  89 S6        29.93F
FORT BRIDGER,  CLOUDY    41  39  93 NW3       30.02S
EVANSTON, WY   LGT RAIN  40  36  86 S8        29.97F WCI  34
ROCK SPRINGS,  CLOUDY    43  34  70 SE3       29.99F
KEMMERER, WY   LGT RAIN  37  36  93 S8        29.99S WCI  31

$$




USA.gov is the U.S. government's official web portal to all federal, state and local government web resources and services.